SL-16 DEB, 24866

Orbit data source: Space-Track

SL-16 DEB, 24866 is space debris in LEO originally from a launch on Wed, 04 Sep 1996 UTC launched from the Tyuratam Missile And Space Complex (TTMTR). Debris objects in space refer to the collection of defunct objects orbiting the Earth. Examples of debris include non-operational satellites, rocket bodies, and fragments generated from explosions, collisions, or faulty payload assembly.

Loading next visibility...
Identifier
24866, 1996-051H
Orbit
LEO
Country
Flag of CISCIS
Related business
Manufacturer
Unknown
Mission
Spacecraft
Bus & Motor
Unknown
Mass
Unknown
Launch date (UTC)
1996-09-04 (30 years ago)
Launch vehicle
Unknown
Launch site
Tyuratam Missile And Space Complex (TTMTR)
Object type
Payload
Rocket body
Debris
Shape & HBR
Unknown shape, 0.2 m
Radar Cross Section
Medium (>0.1 m² and <1 m²)

Expand to show TLE details & history
Last TLE update: 2 days ago

TLE from 2 days ago
0 SL-16 DEB
1 24866U 96051H   26171.45608479 -.00000015  00000-0  17066-4 0  9998
2 24866  71.1253 342.0210 0063515 271.4769  87.9077 14.10967750533015
Epoch: 2026-06-20T10:56Z
TLE epoch observation values (Epoch: 2026-06-20T10:56:45.725Z)
Latitude
-0.00005°
Longitude
-90.83999°
Altitude
857.08 km
Speed
7.425 km/s
True Right ascension
22h 48m 05s
True Declination
0° 00' 00"
Sunlit
Object was in daylight at epoch
Visualization orbit readout
Latitude
Unknown
Longitude
Unknown
Altitude
Unknown
Speed
Unknown
Apparent Right ascension
Unknown
Apparent Declination
Unknown
Sunlit
N/A
Visualization observer readout
Local Sidereal Time
23:20:26
Azimuth
Unknown
Elevation
Unknown
Doppler factor
Unknown
Orbital elements
Apogee altitude
899.913 km
Perigee altitude
808.044 km
Semi-major axis
7,232.115 km
Eccentricity
0.00635
Inclination
71.1253°
RAAN
342.021°
Arg. of periapsis
271.4769°
True anomaly
88.63523°
Mean anomaly
87.9077°
Eccentric anomaly
88.27145°
Mean motion
3.52895 °/min
Orbital period
102.01 mins
BSTAR
0.000017066
Loading maneuver chart data...
Computing Atmospheric mass density...
Loading historical data...
Loading historical data...
Loading historical data...
Loading historical data...
Loading historical data...
Loading historical data...
Loading historical data...

Documentation

Showing up to 5 results
|